| time (UTC) | temp F | wind direction | speed knots | gust knots | rain 1hr in | rain 24hr in | rain mn in | humidity % | barometer mb |
| 20260505153049 | 55 | 135 | 0.0 | 0.9 | 0.00 | 0.00 | 0.00 | 62 | 1009.9 |
| 20260505152545 | 55 | 151 | 0.0 | 0.0 | 0.00 | 0.00 | 0.00 | 62 | 1009.9 |
| 20260505152041 | 55 | 165 | 0.0 | 0.0 | 0.00 | 0.00 | 0.00 | 63 | 1009.9 |
| 20260505151536 | 55 | 171 | 0.9 | 0.9 | 0.00 | 0.00 | 0.00 | 63 | 1009.9 |
| 20260505151034 | 55 | 146 | 0.0 | 0.0 | 0.00 | 0.00 | 0.00 | 63 | 1009.6 |
| 20260505150530 | 55 | 151 | 0.0 | 0.0 | 0.00 | 0.00 | 0.00 | 63 | 1009.9 |
| 20260505140455 | 55 | 188 | 0.0 | 0.9 | 0.00 | 0.00 | 0.00 | 55 | 1009.6 |
| 20260505124909 | 54 | 133 | 0.9 | 1.7 | 0.00 | 0.00 | 0.00 | 61 | 1008.8 |
| 20260505124406 | 54 | 174 | 0.0 | 0.0 | 0.00 | 0.00 | 0.00 | 65 | 1009.1 |
| 20260505123902 | 54 | 164 | 0.0 | 0.0 | 0.00 | 0.00 | 0.00 | 67 | 1008.8 |
| 20260505123359 | 54 | 265 | 0.0 | 0.9 | 0.00 | 0.00 | 0.00 | 66 | 1008.8 |
| 20260505122854 | 54 | 159 | 0.0 | 0.0 | 0.00 | 0.00 | 0.00 | 69 | 1008.8 |
| 20260505122352 | 54 | 126 | 0.9 | 1.7 | 0.00 | 0.00 | 0.00 | 69 | 1008.8 |
| 20260505121848 | 55 | 126 | 0.9 | 0.9 | 0.00 | 0.00 | 0.00 | 68 | 1008.4 |
| 20260505121346 | 54 | 103 | 1.7 | 1.7 | 0.00 | 0.00 | 0.00 | 67 | 1008.4 |
| 20260505120842 | 54 | 154 | 0.0 | 0.9 | 0.00 | 0.00 | 0.00 | 67 | 1008.8 |
| 20260505120338 | 54 | 181 | 0.0 | 0.0 | 0.00 | 0.00 | 0.00 | 67 | 1008.8 |
| 20260505115837 | 54 | 132 | 1.7 | 1.7 | 0.00 | 0.00 | 0.00 | 67 | 1008.8 |
| 20260505115334 | 54 | 167 | 0.0 | 0.9 | 0.00 | 0.00 | 0.00 | 68 | 1008.8 |
| 20260505114832 | 54 | 111 | 0.0 | 0.9 | 0.00 | 0.00 | 0.00 | 68 | 1008.8 |
| 20260505114328 | 55 | 148 | 0.9 | 0.9 | 0.00 | 0.00 | 0.00 | 68 | 1008.4 |
| 20260505113825 | 55 | 142 | 0.0 | 0.9 | 0.00 | 0.00 | 0.00 | 68 | 1008.4 |
| 20260505113321 | 55 | 127 | 0.9 | 0.9 | 0.00 | 0.00 | 0.00 | 67 | 1008.8 |
| 20260505112817 | 55 | 146 | 0.0 | 0.0 | 0.00 | 0.00 | 0.00 | 67 | 1008.4 |
| 20260505112314 | 55 | 112 | 0.9 | 1.7 | 0.00 | 0.00 | 0.00 | 66 | 1008.8 |
| 20260505111810 | 55 | 142 | 0.9 | 0.9 | 0.00 | 0.00 | 0.00 | 66 | 1008.4 |
| 20260505111306 | 55 | 153 | 0.0 | 0.0 | 0.00 | 0.00 | 0.00 | 65 | 1008.8 |
| 20260505110801 | 55 | 152 | 0.0 | 0.0 | 0.00 | 0.00 | 0.00 | 64 | 1008.8 |
| 20260505110300 | 55 | 145 | 0.0 | 0.9 | 0.00 | 0.00 | 0.00 | 64 | 1008.8 |
| 20260505101733 | 56 | 157 | 0.0 | 0.0 | 0.00 | 0.00 | 0.00 | 62 | 1008.8 |
| 20260505101229 | 56 | 118 | 0.9 | 1.7 | 0.00 | 0.00 | 0.00 | 62 | 1008.8 |
| 20260505100726 | 56 | 131 | 0.9 | 0.9 | 0.00 | 0.00 | 0.00 | 61 | 1008.8 |
| 20260505100223 | 56 | 154 | 0.0 | 0.0 | 0.00 | 0.00 | 0.00 | 59 | 1008.8 |
| 20260505095718 | 56 | 150 | 0.0 | 0.0 | 0.00 | 0.00 | 0.00 | 60 | 1008.8 |
| 20260505095217 | 56 | 163 | 0.0 | 0.0 | 0.00 | 0.00 | 0.00 | 61 | 1008.8 |
| 20260505094712 | 55 | 198 | 0.9 | 1.7 | 0.00 | 0.00 | 0.00 | 64 | 1008.8 |
| 20260505094208 | 55 | 123 | 2.6 | 2.6 | 0.00 | 0.00 | 0.00 | 65 | 1009.1 |
| 20260505093704 | 55 | 116 | 0.9 | 0.9 | 0.00 | 0.00 | 0.00 | 65 | 1008.8 |
| 20260505093202 | 55 | 150 | 0.9 | 0.9 | 0.00 | 0.00 | 0.00 | 65 | 1009.1 |
| 20260505092659 | 55 | 150 | 0.9 | 0.9 | 0.00 | 0.00 | 0.00 | 65 | 1009.1 |
| 20260505092158 | 55 | 152 | 0.9 | 0.9 | 0.00 | 0.00 | 0.00 | 65 | 1009.1 |
| 20260505091654 | 55 | 113 | 1.7 | 1.7 | 0.00 | 0.00 | 0.00 | 65 | 1008.8 |
| 20260505091152 | 55 | 120 | 0.9 | 0.9 | 0.00 | 0.00 | 0.00 | 65 | 1008.8 |
| 20260505090649 | 55 | 156 | 0.0 | 0.0 | 0.00 | 0.00 | 0.00 | 65 | 1008.8 |
| 20260505090148 | 56 | 155 | 0.0 | 0.0 | 0.00 | 0.00 | 0.00 | 64 | 1008.8 |
| 20260505085645 | 56 | 161 | 0.0 | 0.0 | 0.00 | 0.00 | 0.00 | 64 | 1008.8 |
| 20260505085143 | 56 | 160 | 0.0 | 0.0 | 0.00 | 0.00 | 0.00 | 64 | 1008.8 |
| 20260505084640 | 56 | 163 | 0.0 | 0.0 | 0.00 | 0.00 | 0.00 | 64 | 1008.8 |
| 20260505084139 | 56 | 136 | 0.0 | 0.9 | 0.00 | 0.00 | 0.00 | 64 | 1009.1 |
| 20260505083636 | 56 | 127 | 0.9 | 0.9 | 0.00 | 0.00 | 0.00 | 64 | 1009.1 |
| 20260505083132 | 56 | 149 | 0.0 | 0.0 | 0.00 | 0.00 | 0.00 | 64 | 1008.8 |
| 20260505082628 | 56 | 132 | 0.0 | 0.0 | 0.00 | 0.00 | 0.00 | 64 | 1009.1 |
| 20260505082126 | 56 | 174 | 0.0 | 0.0 | 0.00 | 0.00 | 0.00 | 64 | 1009.1 |
| 20260505081621 | 56 | 210 | 1.7 | 1.7 | 0.00 | 0.00 | 0.00 | 63 | 1008.8 |
| 20260505081119 | 56 | 148 | 0.0 | 0.0 | 0.00 | 0.00 | 0.00 | 64 | 1008.8 |
| 20260505080615 | 56 | 149 | 0.0 | 0.0 | 0.00 | 0.00 | 0.00 | 63 | 1008.8 |
| 20260505080112 | 56 | 96 | 0.9 | 1.7 | 0.00 | 0.00 | 0.00 | 63 | 1008.8 |
| 20260505075608 | 56 | 89 | 1.7 | 1.7 | 0.00 | 0.00 | 0.00 | 63 | 1009.1 |
| 20260505075104 | 56 | 134 | 0.9 | 0.9 | 0.00 | 0.00 | 0.00 | 63 | 1009.1 |
| 20260505074602 | 56 | 122 | 2.6 | 2.6 | 0.00 | 0.00 | 0.00 | 62 | 1009.1 |
| 20260505074059 | 56 | 153 | 0.0 | 0.0 | 0.00 | 0.00 | 0.00 | 62 | 1009.1 |
| 20260505073556 | 56 | 145 | 0.0 | 0.9 | 0.00 | 0.00 | 0.00 | 62 | 1008.8 |
| 20260505073055 | 57 | 114 | 0.9 | 0.9 | 0.00 | 0.00 | 0.00 | 62 | 1009.1 |
| 20260505072549 | 57 | 150 | 0.0 | 0.0 | 0.00 | 0.00 | 0.00 | 62 | 1008.8 |
| 20260505072046 | 57 | 221 | 0.9 | 0.9 | 0.00 | 0.00 | 0.00 | 62 | 1008.8 |
| 20260505071541 | 57 | 83 | 0.9 | 1.7 | 0.00 | 0.00 | 0.00 | 62 | 1008.8 |
| 20260505071040 | 57 | 179 | 0.0 | 0.0 | 0.00 | 0.00 | 0.00 | 61 | 1008.8 |
| 20260505070537 | 57 | 186 | 0.0 | 0.0 | 0.00 | 0.00 | 0.00 | 61 | 1008.8 |
| 20260505070033 | 57 | 187 | 2.6 | 5.2 | 0.00 | 0.00 | 0.00 | 61 | 1009.1 |
| 20260505065529 | 57 | 213 | 4.3 | 6.1 | 0.00 | 0.00 | 0.00 | 61 | 1008.8 |
| 20260505065025 | 57 | 218 | 4.3 | 5.2 | 0.00 | 0.00 | 0.00 | 61 | 1008.8 |
| 20260505064522 | 57 | 187 | 1.7 | 4.3 | 0.00 | 0.00 | 0.00 | 63 | 1008.8 |
| 20260505064021 | 57 | 183 | 4.3 | 7.0 | 0.00 | 0.00 | 0.00 | 63 | 1008.8 |
| 20260505063518 | 57 | 214 | 2.6 | 2.6 | 0.00 | 0.00 | 0.00 | 65 | 1008.8 |
| 20260505063013 | 57 | 180 | 0.9 | 2.6 | 0.00 | 0.00 | 0.00 | 65 | 1008.8 |
| 20260505062511 | 57 | 181 | 1.7 | 2.6 | 0.00 | 0.00 | 0.00 | 65 | 1008.8 |
| 20260505062008 | 57 | 212 | 2.6 | 5.2 | 0.00 | 0.00 | 0.00 | 64 | 1008.8 |
| 20260505061505 | 57 | 188 | 2.6 | 4.3 | 0.00 | 0.00 | 0.00 | 64 | 1008.4 |
| 20260505061003 | 57 | 205 | 2.6 | 4.3 | 0.00 | 0.00 | 0.00 | 64 | 1008.8 |
| 20260505060500 | 57 | 236 | 2.6 | 2.6 | 0.00 | 0.00 | 0.00 | 63 | 1008.8 |
| 20260505055956 | 58 | 225 | 7.8 | 9.6 | 0.00 | 0.01 | 0.01 | 62 | 1008.4 |
| 20260505055452 | 58 | 229 | 5.2 | 8.7 | 0.00 | 0.01 | 0.01 | 60 | 1008.4 |
| 20260505054949 | 58 | 249 | 5.2 | 9.6 | 0.00 | 0.01 | 0.01 | 59 | 1008.8 |
| 20260505054446 | 58 | 211 | 4.3 | 6.1 | 0.00 | 0.01 | 0.01 | 59 | 1008.8 |
| 20260505053944 | 59 | 199 | 2.6 | 2.6 | 0.00 | 0.01 | 0.01 | 57 | 1008.8 |
| 20260505053441 | 59 | 206 | 4.3 | 7.0 | 0.00 | 0.01 | 0.01 | 56 | 1008.8 |
| 20260505052938 | 59 | 206 | 2.6 | 2.6 | 0.00 | 0.01 | 0.01 | 56 | 1008.8 |
| 20260505052435 | 59 | 202 | 1.7 | 1.7 | 0.00 | 0.01 | 0.01 | 56 | 1008.8 |
| 20260505051932 | 59 | 185 | 0.9 | 0.9 | 0.00 | 0.01 | 0.01 | 55 | 1008.4 |
| 20260505051429 | 59 | 177 | 0.9 | 0.9 | 0.00 | 0.01 | 0.01 | 55 | 1008.4 |
| 20260505050927 | 59 | 192 | 1.7 | 4.3 | 0.00 | 0.01 | 0.01 | 54 | 1008.4 |
| 20260505050425 | 60 | 190 | 0.9 | 1.7 | 0.00 | 0.01 | 0.01 | 54 | 1008.4 |
| 20260505041352 | 59 | 152 | 0.9 | 0.9 | 0.00 | 0.01 | 0.01 | 52 | 1007.6 |
| 20260505040849 | 60 | 144 | 0.0 | 0.0 | 0.00 | 0.01 | 0.01 | 52 | 1007.6 |
| 20260505040347 | 60 | 165 | 0.0 | 0.0 | 0.00 | 0.01 | 0.01 | 50 | 1007.6 |
| 20260505035844 | 60 | 160 | 0.0 | 0.0 | 0.00 | 0.01 | 0.01 | 49 | 1007.6 |
| 20260505035339 | 59 | 202 | 0.9 | 0.9 | 0.00 | 0.01 | 0.01 | 52 | 1007.6 |
| 20260505034837 | 59 | 151 | 0.0 | 0.0 | 0.00 | 0.01 | 0.01 | 51 | 1007.6 |
| 20260505034333 | 59 | 154 | 0.0 | 0.0 | 0.00 | 0.01 | 0.01 | 50 | 1007.2 |
| 20260505033831 | 59 | 159 | 0.0 | 0.0 | 0.00 | 0.01 | 0.01 | 50 | 1006.8 |
| 20260505033327 | 59 | 165 | 0.0 | 0.0 | 0.00 | 0.01 | 0.01 | 50 | 1007.2 |
| 20260505032826 | 60 | 167 | 0.0 | 0.0 | 0.00 | 0.01 | 0.01 | 51 | 1007.2 |
| 20260505032322 | 60 | 154 | 0.0 | 0.0 | 0.00 | 0.01 | 0.01 | 51 | 1006.8 |
| 20260505031819 | 60 | 160 | 0.0 | 0.0 | 0.00 | 0.01 | 0.01 | 49 | 1006.8 |
| 20260505031315 | 60 | 117 | 0.9 | 0.9 | 0.00 | 0.01 | 0.01 | 49 | 1006.8 |
| 20260505030813 | 61 | 162 | 0.0 | 0.0 | 0.00 | 0.01 | 0.01 | 48 | 1006.8 |
| 20260505030309 | 62 | 169 | 0.0 | 0.0 | 0.00 | 0.01 | 0.01 | 48 | 1006.8 |
| 20260505025804 | 62 | 140 | 0.0 | 0.0 | 0.00 | 0.01 | 0.01 | 46 | 1006.8 |
| 20260505025304 | 62 | 158 | 0.0 | 0.0 | 0.00 | 0.01 | 0.01 | 46 | 1006.8 |
| 20260505024800 | 62 | 158 | 0.0 | 0.0 | 0.00 | 0.01 | 0.01 | 45 | 1006.5 |
| 20260505024257 | 62 | 160 | 0.0 | 0.0 | 0.00 | 0.01 | 0.01 | 45 | 1006.5 |
| 20260505023755 | 63 | 165 | 0.0 | 0.0 | 0.00 | 0.01 | 0.01 | 44 | 1006.5 |
| 20260505023251 | 63 | 160 | 0.0 | 0.0 | 0.00 | 0.01 | 0.01 | 44 | 1006.5 |
| 20260505022749 | 64 | 161 | 0.0 | 0.0 | 0.00 | 0.01 | 0.01 | 43 | 1006.5 |
| 20260505022246 | 64 | 165 | 0.0 | 0.0 | 0.00 | 0.01 | 0.01 | 43 | 1006.5 |
| 20260505021742 | 64 | 165 | 0.0 | 0.0 | 0.00 | 0.01 | 0.01 | 41 | 1006.5 |
| 20260505021240 | 65 | 169 | 0.0 | 0.0 | 0.00 | 0.01 | 0.01 | 42 | 1006.5 |
| 20260505020735 | 65 | 162 | 0.0 | 0.0 | 0.00 | 0.01 | 0.01 | 40 | 1006.5 |
| 20260505020231 | 65 | 168 | 0.0 | 0.0 | 0.00 | 0.01 | 0.01 | 40 | 1006.5 |
| 20260505015728 | 66 | 167 | 0.0 | 0.0 | 0.00 | 0.01 | 0.01 | 39 | 1006.5 |
| 20260505015225 | 66 | 120 | 0.9 | 0.9 | 0.00 | 0.01 | 0.01 | 38 | 1006.5 |
| 20260505014722 | 65 | 138 | 1.7 | 1.7 | 0.00 | 0.01 | 0.01 | 38 | 1006.5 |
| 20260505014220 | 66 | 178 | 0.9 | 0.9 | 0.00 | 0.01 | 0.01 | 39 | 1006.5 |
| 20260505013716 | 66 | 149 | 0.0 | 0.0 | 0.00 | 0.01 | 0.01 | 39 | 1006.5 |
| 20260505013213 | 66 | 151 | 0.9 | 1.7 | 0.00 | 0.01 | 0.01 | 37 | 1006.5 |
| 20260505012711 | 66 | 145 | 0.0 | 0.0 | 0.00 | 0.01 | 0.01 | 37 | 1006.5 |
| 20260505012208 | 66 | 131 | 0.0 | 0.0 | 0.00 | 0.01 | 0.01 | 37 | 1006.8 |
| 20260505011704 | 66 | 130 | 0.0 | 0.0 | 0.00 | 0.01 | 0.01 | 37 | 1006.5 |
| 20260505011201 | 66 | 143 | 0.0 | 0.9 | 0.00 | 0.01 | 0.01 | 37 | 1006.5 |
| 20260505010656 | 66 | 96 | 0.0 | 0.0 | 0.00 | 0.01 | 0.01 | 37 | 1006.5 |
| 20260505010154 | 66 | 137 | 0.0 | 0.0 | 0.00 | 0.01 | 0.01 | 36 | 1006.5 |
| 20260505005650 | 66 | 134 | 0.9 | 0.9 | 0.00 | 0.01 | 0.01 | 36 | 1006.5 |
| 20260505005147 | 66 | 90 | 0.9 | 0.9 | 0.00 | 0.01 | 0.01 | 36 | 1006.5 |
| 20260505004644 | 66 | 108 | 4.3 | 6.1 | 0.00 | 0.01 | 0.01 | 37 | 1006.5 |
| 20260505004140 | 66 | 98 | 1.7 | 1.7 | 0.00 | 0.01 | 0.01 | 37 | 1006.8 |
| 20260505003638 | 66 | 145 | 0.9 | 0.9 | 0.00 | 0.01 | 0.01 | 38 | 1006.5 |
| 20260505003135 | 66 | 106 | 2.6 | 4.3 | 0.00 | 0.01 | 0.01 | 38 | 1006.8 |
| 20260505002631 | 66 | 128 | 2.6 | 2.6 | 0.00 | 0.01 | 0.01 | 38 | 1006.8 |
| 20260505002129 | 66 | 109 | 2.6 | 2.6 | 0.00 | 0.01 | 0.01 | 38 | 1006.8 |
| 20260505001626 | 66 | 135 | 1.7 | 1.7 | 0.00 | 0.01 | 0.01 | 38 | 1007.2 |
| 20260505001124 | 66 | 28 | 2.6 | 2.6 | 0.00 | 0.01 | 0.01 | 38 | 1006.8 |
| 20260505000620 | 66 | 87 | 2.6 | 4.3 | 0.00 | 0.01 | 0.01 | 38 | 1007.2 |
| 20260505000119 | 66 | 84 | 3.5 | 5.2 | 0.00 | 0.01 | 0.01 | 39 | 1007.2 |
| 20260504235615 | 66 | 72 | 2.6 | 4.3 | 0.00 | 0.01 | 0.01 | 39 | 1007.2 |
| 20260504235111 | 66 | 36 | 6.1 | 8.7 | 0.00 | 0.01 | 0.01 | 39 | 1007.6 |
| 20260504234608 | 66 | 122 | 7.8 | 11.3 | 0.00 | 0.01 | 0.01 | 39 | 1007.6 |
| 20260504234106 | 66 | 88 | 4.3 | 8.7 | 0.00 | 0.01 | 0.01 | 42 | 1007.6 |
| 20260504233601 | 66 | 102 | 2.6 | 4.3 | 0.00 | 0.01 | 0.01 | 42 | 1008.0 |
| 20260504233058 | 66 | 86 | 4.3 | 6.1 | 0.00 | 0.01 | 0.01 | 43 | 1007.6 |
| 20260504232555 | 66 | 49 | 4.3 | 5.2 | 0.00 | 0.01 | 0.01 | 42 | 1008.0 |
| 20260504232053 | 66 | 60 | 2.6 | 6.1 | 0.00 | 0.01 | 0.01 | 43 | 1008.0 |
| 20260504231549 | 66 | 62 | 2.6 | 2.6 | 0.00 | 0.01 | 0.01 | 44 | 1008.0 |
| 20260504231045 | 65 | 100 | 5.2 | 7.8 | 0.00 | 0.01 | 0.01 | 43 | 1007.6 |
| 20260504230541 | 64 | 98 | 4.3 | 6.1 | 0.00 | 0.01 | 0.01 | 46 | 1007.6 |
| 20260504230041 | 63 | 79 | 1.7 | 1.7 | 0.01 | 0.01 | 0.01 | 49 | 1008.0 |
| 20260504225537 | 62 | 181 | 0.9 | 1.7 | 0.01 | 0.01 | 0.01 | 53 | 1008.0 |
| 20260504225034 | 62 | 152 | 0.9 | 1.7 | 0.01 | 0.01 | 0.01 | 50 | 1008.0 |
| 20260504224531 | 61 | 133 | 1.7 | 4.3 | 0.01 | 0.01 | 0.01 | 53 | 1008.4 |
| 20260504224028 | 61 | 167 | 0.0 | 0.0 | 0.01 | 0.01 | 0.01 | 50 | 1008.0 |
| 20260504223524 | 61 | 223 | 2.6 | 4.3 | 0.01 | 0.01 | 0.01 | 50 | 1008.0 |
| 20260504223020 | 60 | 195 | 2.6 | 2.6 | 0.01 | 0.01 | 0.01 | 51 | 1008.4 |
| 20260504222517 | 59 | 208 | 2.6 | 2.6 | 0.01 | 0.01 | 0.01 | 53 | 1008.0 |
| 20260504222015 | 60 | 191 | 4.3 | 5.2 | 0.01 | 0.01 | 0.01 | 61 | 1008.0 |
| 20260504221512 | 62 | 219 | 0.9 | 1.7 | 0.00 | 0.00 | 0.00 | 54 | 1008.4 |
| 20260504221009 | 65 | 228 | 5.2 | 7.0 | 0.00 | 0.00 | 0.00 | 48 | 1008.0 |
| 20260504220505 | 67 | 230 | 4.3 | 6.1 | 0.00 | 0.00 | 0.00 | 40 | 1008.0 |
| 20260504220002 | 68 | 233 | 3.5 | 6.1 | 0.00 | 0.00 | 0.00 | 36 | 1007.6 |
| 20260504215459 | 68 | 213 | 4.3 | 6.1 | 0.00 | 0.00 | 0.00 | 34 | 1007.6 |
| 20260504214956 | 67 | 217 | 3.5 | 5.2 | 0.00 | 0.00 | 0.00 | 34 | 1007.6 |
| 20260504214452 | 67 | 115 | 1.7 | 2.6 | 0.00 | 0.00 | 0.00 | 39 | 1007.6 |
| 20260504213948 | 68 | 143 | 3.5 | 5.2 | 0.00 | 0.00 | 0.00 | 36 | 1007.2 |
| 20260504213444 | 69 | 102 | 1.7 | 1.7 | 0.00 | 0.00 | 0.00 | 35 | 1007.6 |
| 20260504212942 | 70 | 156 | 1.7 | 2.6 | 0.00 | 0.00 | 0.00 | 33 | 1007.6 |
| 20260504212438 | 71 | 254 | 0.9 | 1.7 | 0.00 | 0.00 | 0.00 | 32 | 1007.2 |
| 20260504211936 | 71 | 193 | 1.7 | 1.7 | 0.00 | 0.00 | 0.00 | 29 | 1007.2 |
| 20260504211432 | 71 | 202 | 0.9 | 0.9 | 0.00 | 0.00 | 0.00 | 30 | 1007.2 |
| 20260504210930 | 71 | 233 | 2.6 | 2.6 | 0.00 | 0.00 | 0.00 | 29 | 1007.6 |
| 20260504210426 | 72 | 241 | 1.7 | 1.7 | 0.00 | 0.00 | 0.00 | 30 | 1007.6 |
| 20260504205923 | 72 | 254 | 0.9 | 2.6 | 0.00 | 0.00 | 0.00 | 30 | 1007.6 |
| 20260504205421 | 72 | 122 | 1.7 | 1.7 | 0.00 | 0.00 | 0.00 | 29 | 1007.2 |
| 20260504204919 | 72 | 139 | 0.0 | 0.0 | 0.00 | 0.00 | 0.00 | 29 | 1007.6 |
| 20260504204417 | 72 | 269 | 2.6 | 2.6 | 0.00 | 0.00 | 0.00 | 30 | 1007.6 |
| 20260504203916 | 73 | 221 | 1.7 | 1.7 | 0.00 | 0.00 | 0.00 | 31 | 1007.6 |
| 20260504203413 | 73 | 158 | 0.0 | 0.0 | 0.00 | 0.00 | 0.00 | 29 | 1007.6 |
| 20260504202908 | 73 | 146 | 0.9 | 0.9 | 0.00 | 0.00 | 0.00 | 28 | 1007.6 |
| 20260504202406 | 73 | 96 | 0.9 | 1.7 | 0.00 | 0.00 | 0.00 | 29 | 1007.6 |
| 20260504201902 | 72 | 153 | 1.7 | 1.7 | 0.00 | 0.00 | 0.00 | 30 | 1007.6 |
| 20260504201400 | 73 | 5 | 2.6 | 2.6 | 0.00 | 0.00 | 0.00 | 28 | 1008.0 |
| 20260504200857 | 72 | 173 | 1.7 | 2.6 | 0.00 | 0.00 | 0.00 | 29 | 1007.6 |
| 20260504200354 | 73 | 160 | 0.9 | 0.9 | 0.00 | 0.00 | 0.00 | 30 | 1008.0 |
| 20260504195850 | 74 | 168 | 1.7 | 2.6 | 0.00 | 0.00 | 0.00 | 29 | 1008.0 |
| 20260504195346 | 75 | 253 | 1.7 | 2.6 | 0.00 | 0.00 | 0.00 | 28 | 1008.0 |
| 20260504194843 | 75 | 188 | 0.9 | 0.9 | 0.00 | 0.00 | 0.00 | 24 | 1008.0 |
| 20260504194339 | 74 | 173 | 0.0 | 0.9 | 0.00 | 0.00 | 0.00 | 26 | 1008.0 |
| 20260504193835 | 75 | 221 | 2.6 | 2.6 | 0.00 | 0.00 | 0.00 | 26 | 1007.6 |
| 20260504193332 | 75 | 159 | 2.6 | 2.6 | 0.00 | 0.00 | 0.00 | 26 | 1008.0 |
| 20260504192831 | 73 | 199 | 0.9 | 1.7 | 0.00 | 0.00 | 0.00 | 27 | 1008.0 |
| 20260504192328 | 73 | 234 | 0.9 | 1.7 | 0.00 | 0.00 | 0.00 | 28 | 1008.0 |
| 20260504191827 | 74 | 174 | 1.7 | 1.7 | 0.00 | 0.00 | 0.00 | 28 | 1008.0 |
| 20260504191324 | 75 | 156 | 2.6 | 2.6 | 0.00 | 0.00 | 0.00 | 26 | 1008.0 |
| 20260504190819 | 75 | 201 | 3.5 | 4.3 | 0.00 | 0.00 | 0.00 | 27 | 1008.4 |
| 20260504190316 | 74 | 161 | 0.9 | 1.7 | 0.00 | 0.00 | 0.00 | 28 | 1008.4 |
| 20260504185812 | 76 | 205 | 0.0 | 0.9 | 0.00 | 0.00 | 0.00 | 26 | 1008.4 |
| 20260504185309 | 76 | 182 | 1.7 | 1.7 | 0.00 | 0.00 | 0.00 | 25 | 1008.8 |
| 20260504184805 | 74 | 149 | 0.0 | 0.9 | 0.00 | 0.00 | 0.00 | 25 | 1008.8 |
| 20260504184301 | 74 | 258 | 3.5 | 4.3 | 0.00 | 0.00 | 0.00 | 27 | 1008.8 |
| 20260504183757 | 74 | 168 | 0.0 | 0.0 | 0.00 | 0.00 | 0.00 | 27 | 1008.8 |
| 20260504183254 | 75 | 233 | 2.6 | 4.3 | 0.00 | 0.00 | 0.00 | 27 | 1008.4 |
| 20260504182752 | 74 | 166 | 1.7 | 1.7 | 0.00 | 0.00 | 0.00 | 27 | 1008.8 |
| 20260504182249 | 75 | 136 | 2.6 | 4.3 | 0.00 | 0.00 | 0.00 | 26 | 1008.8 |
| 20260504181747 | 75 | 187 | 0.9 | 0.9 | 0.00 | 0.00 | 0.00 | 26 | 1008.8 |
| 20260504181244 | 74 | 179 | 1.7 | 1.7 | 0.00 | 0.00 | 0.00 | 28 | 1009.1 |
| 20260504180743 | 74 | 212 | 3.5 | 4.3 | 0.00 | 0.00 | 0.00 | 28 | 1009.1 |
| 20260504180241 | 73 | 292 | 2.6 | 2.6 | 0.00 | 0.00 | 0.00 | 28 | 1008.8 |
| 20260504175739 | 74 | 271 | 2.6 | 2.6 | 0.00 | 0.00 | 0.00 | 29 | 1009.1 |
| 20260504175235 | 75 | 218 | 3.5 | 4.3 | 0.00 | 0.00 | 0.00 | 27 | 1009.1 |
| 20260504174733 | 74 | 191 | 1.7 | 2.6 | 0.00 | 0.00 | 0.00 | 29 | 1008.8 |
| 20260504174231 | 73 | 171 | 0.0 | 0.9 | 0.00 | 0.00 | 0.00 | 29 | 1009.1 |
| 20260504173727 | 73 | 175 | 4.3 | 5.2 | 0.00 | 0.00 | 0.00 | 30 | 1009.1 |
| 20260504173224 | 73 | 165 | 1.7 | 2.6 | 0.00 | 0.00 | 0.00 | 28 | 1009.1 |
| 20260504172721 | 73 | 163 | 0.9 | 1.7 | 0.00 | 0.00 | 0.00 | 29 | 1009.6 |
| 20260504172217 | 72 | 211 | 3.5 | 5.2 | 0.00 | 0.00 | 0.00 | 31 | 1009.6 |
| 20260504171714 | 72 | 202 | 1.7 | 1.7 | 0.00 | 0.00 | 0.00 | 32 | 1009.6 |
| 20260504171211 | 74 | 293 | 3.5 | 5.2 | 0.00 | 0.00 | 0.00 | 30 | 1009.6 |
| 20260504170707 | 73 | 166 | 0.0 | 0.0 | 0.00 | 0.00 | 0.00 | 31 | 1009.1 |
| 20260504170205 | 73 | 112 | 1.7 | 1.7 | 0.00 | 0.00 | 0.00 | 31 | 1009.6 |
| 20260504160124 | 70 | 161 | 0.0 | 0.0 | 0.00 | 0.00 | 0.00 | 30 | 1009.6 |